Regional Weather Roundup
Issued by NWS

Home | Current Version | Previous Version | Text Only | Print | Product List | Glossary Off
Versions: 1 2 3 4 5 6 7 8 9 10 11 12 13 14 15 16 17 18 19 20 21 22 23 24 25 26 27

000
ASUS45 KBOU 211407
RWRCO

WEATHER ROUNDUP FOR COLORADO
NATIONAL WEATHER SERVICE DENVER/BOULDER CO
800 AM MDT THU SEP 21 2017

NOTE: "FAIR" INDICATES FEW OR NO CLOUDS BELOW 12000 FEET WITH NO
SIGNIFICANT WEATHER AND/OR OBSTRUCTIONS TO VISIBILITY.

COZ001>005-013-030-031-211500-
...NORTHWEST COLORADO...

CITY           SKY/WX    TMP DP  RH WIND       PRES   REMARKS
CRAIG          FAIR      64  26  23 SW12G22   29.84R
HAYDEN         FAIR      61  28  28 S8        29.89R
MEEKER         FAIR      61  31  32 S5        29.88R
RABBIT EARS PA FAIR      45  25  45 SW12G23   30.11R
STEAMBOAT SPGS FAIR      45  32  60 E3        29.89R
WALDEN         FAIR      54  25  32 S14G20    29.95S
$$

COZ006>008-011-211500-
...WEST CENTRAL VALLEYS...

CITY           SKY/WX    TMP DP  RH WIND       PRES   REMARKS
GRAND JUNCTION FAIR      68  37  32 SE18      29.83R
MONTROSE       FAIR      65  31  28 SE15      29.95S
EAGLE          FAIR      50  28  42 VRB6      29.94R
RIFLE          FAIR      57  31  37 E5        29.86R
DELTA          NOT AVBL
NUCLA          FAIR      64  32  29 S13G21    29.99R
$$

COZ017>023-064>068-211500-
...SOUTHWEST COLORADO...

CITY           SKY/WX    TMP DP  RH WIND       PRES   REMARKS
DURANGO        FAIR      45  32  60 CALM      30.10R
CORTEZ         FAIR      47  35  63 N3        30.01S
PAGOSA SPRINGS NOT AVBL
TELLURIDE      FAIR      54  25  32 S17G31    30.14F
WOLF CREEK PAS FAIR      34  27  75 S26G38    30.34R WCI  21
$$

COZ009-010-012-014-032>034-037-058>063-211500-
...CENTRAL COLORADO...

CITY           SKY/WX    TMP DP  RH WIND       PRES   REMARKS
ASPEN          FAIR      51  27  39 SE13      30.00S
BUENA VISTA    FAIR      53  25  34 E3        30.03F
COPPER MTN     FAIR      46  10  23 S15G22    30.24R
BERTHOUD PASS  FAIR      37  30  75 W33G51    30.22R
COTTONWOOD PAS FAIR      55  21  26 W24G38    30.12R
GUNNISON       FAIR      33  27  78 CALM      30.11R
KREMMLING      FAIR      45  30  57 CALM      29.98R
LEADVILLE      FAIR      42  19  39 E3        30.11S
MONARCH PASS   FAIR      37  21  52 SW33G40   30.36S
SALIDA         FAIR      55  26  32 N3        30.11S
SUNLIGHT       FAIR      39  27  60 SW22G43   30.15R
WILKERSON PASS FAIR      41  21  45 SW14G23   30.21R
$$

COZ069>075-211500-
...SAN LUIS VALLEY/SANGRE DE CRISTO MOUNTAINS...

CITY           SKY/WX    TMP DP  RH WIND       PRES   REMARKS
ALAMOSA        FAIR      51  35  54 S14       30.09F
DEL NORTE      FAIR      47  29  50 CALM      30.13R
LA VETA PASS   FAIR      46  32  57 S31G52    30.26R
SAGUACHE       FAIR      41  30  65 N3        30.12S
$$

COZ035-036-038>040-211500-
...NORTHERN COLORADO FRONT RANGE...

CITY           SKY/WX    TMP DP  RH WIND       PRES   REMARKS
DENVER INTL AP FAIR      63  29  27 SW7       29.80R
DMNS CITY PARK   N/A     58  37  46 E9        29.80S
AURORA         MOSUNNY   68  27  21 S15       29.82R
FRONT RANGE AP SUNNY     68  27  21 S15       29.81S
ERIE MUNI ARPT FAIR      47  36  67 CALM      29.85S
BOULDER MUN AP FAIR      50  34  53 CALM      29.80S
CENTENNIAL     FAIR      68  25  19 S10       29.84S
BROOMFIELD     SUNNY     55  30  38 CALM      29.81S
FORT COLLINS   FAIR      50  37  61 CALM      29.80
LONGMONT       FAIR      47  38  70 CALM      29.81S
$$

COZ041-046-047-076>085-087-088-211500-
...PIKES PEAK/PALMER DIVIDE AND SOUTHERN FOOTHILLS...

CITY           SKY/WX    TMP DP  RH WIND       PRES   REMARKS
COLO. SPRINGS  FAIR      61  32  33 SE10      29.91S
A. F. ACADEMY  FAIR      50  30  45 N6        29.90S
SCHRIEVER AFB  FAIR      58  32  36 CALM      29.91S
CHEYENNE MTN   FAIR      60  29  31 SE25G41   29.84F
ELLICOTT         N/A    N/A N/A N/A SE10      29.90S
FALCON         NOT AVBL
FORT CARSON    FAIR      52  37  56 CALM      29.88R
LIMON          FAIR      63  32  31 S7        29.85S
MONUMENT HILL  FAIR      61  27  27 S12       29.95S
CANON CITY     SUNNY     52  36  54 CALM      29.87S
WALSENBURG     FAIR      70  34  26 SW22G32   29.92F
TRINIDAD       FAIR      68  32  26 VRB3      29.93R
$$

COZ042>045-048>051-090-091-211500-
...NORTHEAST COLORADO...

CITY           SKY/WX    TMP DP  RH WIND       PRES   REMARKS
GREELEY ARPT   FAIR      44  36  73 NW3       29.79R
AKRON          FAIR      59  35  40 SW5       29.78R
BURLINGTON     FAIR      61  41  47 SW13      29.80S
WRAY           FAIR      55  41  58 CALM      29.77S
YUMA           FAIR      48  39  71 CALM      29.77F
STERLING       FAIR      48  39  71 CALM      29.76R
HOLYOKE        NOT AVBL
FORT MORGAN    FAIR      52  35  52 CALM      29.78S
$$

COZ086-089-092>099-211500-
...SOUTHEAST COLORADO...

CITY           SKY/WX    TMP DP  RH WIND       PRES   REMARKS
PUEBLO         FAIR      49  36  61 CALM      29.84S
LA JUNTA       FAIR      54  39  57 CALM      29.82F
LAMAR          FAIR      52  40  63 W3        29.80S
SPRINGFIELD      N/A     62  44  51 SW9       29.86S
$$




USA.gov is the U.S. government's official web portal to all federal, state and local government web resources and services.